DELTA 1 DEB, 2118

Orbit data source: Space-Track

DELTA 1 DEB, 2118 is space debris in SSO originally from a launch on Thu, 03 Feb 1966 UTC launched from the Air Force Eastern Test Range (AFETR). Debris objects in space refer to the collection of defunct objects orbiting the Earth. Examples of debris include non-operational satellites, rocket bodies, and fragments generated from explosions, collisions, or faulty payload assembly.

Loading next visibility...
Identifier
2118, 1966-008D
Orbit
SSO
Country
Flag of USUS
Related business
Manufacturer
Unknown
Mission
Spacecraft
Bus & Motor
Unknown
Mass
~1 kg wet, ~1 kg dry
Launch date (UTC)
1966-02-03 (60 years ago)
Launch vehicle
Unknown
Launch site
Air Force Eastern Test Range (AFETR)
Object type
Payload
Rocket body
Debris
Shape & HBR
Unknown
Radar Cross Section
Small (<0.1 m²)

Expand to show TLE details & history
Last TLE update: 21 hours ago

TLE from 21 hours ago
0 DELTA 1 DEB
1  2118U 66008D   26119.89965569  .00000445  00000-0  12272-3 0  9998
2  2118  98.0520 254.3377 0126026  11.6305 348.7752 14.46864479128844
Epoch: 2026-04-29T21:35Z
TLE epoch observation values (Epoch: 2026-04-29T21:35:30.251Z)
Latitude
-0.00007°
Longitude
72.60767°
Altitude
650.965 km
Speed
7.579 km/s
True Right ascension
16h 57m 21s
True Declination
0° 00' 00"
Sunlit
Object was in full shadow at epoch
Visualization orbit readout
Latitude
Unknown
Longitude
Unknown
Altitude
Unknown
Speed
Unknown
Apparent Right ascension
Unknown
Apparent Declination
Unknown
Sunlit
N/A
Visualization observer readout
Local Sidereal Time
02:31:25
Azimuth
Unknown
Elevation
Unknown
Doppler factor
Unknown
Orbital elements
Apogee altitude
822.618 km
Perigee altitude
643.381 km
Semi-major axis
7,111.136 km
Eccentricity
0.0126
Inclination
98.052°
RAAN
254.3377°
Arg. of periapsis
11.6305°
True anomaly
348.48968°
Mean anomaly
348.7752°
Eccentric anomaly
348.63288°
Mean motion
3.61938 °/min
Orbital period
99.46 mins
BSTAR
0.00012272
Loading maneuver chart data...
Computing Atmospheric mass density...
Loading historical data...
Loading historical data...
Loading historical data...
Loading historical data...
Loading historical data...
Loading historical data...
Loading historical data...
Other satellites on launch #8 in the year 1966 (1966-02-03 UTC)

Documentation

Showing up to 5 results
|